South Bend, IN

6:37 PM EST on December 16, 2017 (GMT -0500)
South Bend Regional

Weather History for KSBN - October, 2012

Change the Weather History Date:

Tuesday, October 30, 2012

  Actual Average Record
Temperature  
Mean Temperature 42 °F 48 °F  
Max Temperature 44 °F 56 °F 81 °F (1950)
Min Temperature 40 °F 39 °F 17 °F (1895)
Degree Days  
Heating Degree Days 23 17  
Month to date heating degree days 417 388  
Since 1 July heating degree days 560 522  
Cooling Degree Days 0 0  
Month to date cooling degree days 7 8  
Year to date cooling degree days 1115 772  
Moisture  
Dew Point 34 °F    
Average Humidity 70    
Maximum Humidity 86    
Minimum Humidity 53    
Precipitation  
Precipitation 0.23 in 0.11 in 1.19 in (2009)
Month to date precipitation 4.28 3.22  
Year to date precipitation 30.89 32.02  
Snow  
Snow 0.00 in 0.10 in 3.60 in (1954)
Month to date snowfall 0.0 0.4  
Since 1 July snowfall 0.0 0.4  
Since 1 September snowfall 0.4  
Snow Depth 0.00 in    
Sea Level Pressure  
Sea Level Pressure 29.73 in    
Wind  
Wind Speed 26 mph (NNW)    
Max Wind Speed 41 mph    
Max Gust Speed 53 mph    
Visibility 9 miles    
Events Rain    
T = Trace of Precipitation, MM = Missing Value Source: NWS Daily Summary

Daily Weather History Graph

Daily Weather History Graph

Search for Another Location

Airport or City:

Trip Planner

Search our weather history database for the weather conditions in past years. The results will help you decide how hot, cold, wet, or windy it might be!

Date:

Astronomy

Oct. 30, 2012 Rise Set
Actual Time 8:15 AM EDT 6:41 PM EDT
Civil Twilight 7:46 AM EDT 7:10 PM EDT
Nautical Twilight 7:13 AM EDT 7:43 PM EDT
Astronomical Twilight 6:41 AM EDT 8:15 PM EDT
Moon 7:09 PM EDT (10/30) 9:02 AM EDT (10/30)
Length of Visible Light 11h 23m
Length of Day
10h 26m
Full, 99% of the Moon is Illuminated
Oct 30
Full
Nov 6
Last Quarter
Nov 13
New
Nov 20
First Quarter
Nov 28
Full

Hourly Weather History & Observations

Time (EDT) Temp. Windchill Dew Point Humidity Pressure Visibility Wind Dir Wind Speed Gust Speed Precip Events Conditions
12:54 AM 42.1 °F 32.6 °F 26.1 °F 53% 29.90 in 10.0 mi North 23.0 mph 33.4 mph N/A   Clear
1:54 AM 42.1 °F 31.3 °F 28.0 °F 58% 29.87 in 10.0 mi North 29.9 mph 40.3 mph N/A   Clear
2:54 AM 43.0 °F 32.5 °F 27.0 °F 53% 29.83 in 10.0 mi NNW 29.9 mph 39.1 mph N/A   Clear
3:54 AM 43.0 °F 31.8 °F 28.9 °F 58% 29.80 in 10.0 mi NNW 34.5 mph 43.7 mph N/A   Clear
4:54 AM 44.1 °F 33.7 °F 28.9 °F 55% 29.78 in 10.0 mi NNW 32.2 mph 39.1 mph N/A   Clear
5:54 AM 44.1 °F 33.7 °F 28.9 °F 55% 29.75 in 10.0 mi North 32.2 mph 46.0 mph N/A   Mostly Cloudy
6:54 AM 42.1 °F 30.8 °F 33.1 °F 70% 29.75 in 10.0 mi North 33.4 mph 44.9 mph 0.00 in Rain Light Rain
7:14 AM 41.0 °F 30.2 °F 35.6 °F 81% 29.73 in 10.0 mi North 27.6 mph 46.0 mph 0.00 in Rain Light Rain
7:52 AM 41.0 °F 29.7 °F 35.6 °F 81% 29.71 in 8.0 mi NNW 31.1 mph 41.4 mph 0.03 in Rain Light Rain
7:54 AM 41.0 °F 30.0 °F 35.6 °F 81% 29.71 in 8.0 mi NNW 28.8 mph 41.4 mph N/A Rain Light Rain
8:54 AM 41.0 °F 29.5 °F 36.0 °F 82% 29.71 in 10.0 mi North 32.2 mph 43.7 mph 0.02 in Rain Light Rain
9:54 AM 42.1 °F 31.5 °F 36.0 °F 79% 29.69 in 10.0 mi North 28.8 mph 48.3 mph 0.00 in Rain Light Rain
10:54 AM 42.1 °F 32.1 °F 36.0 °F 79% 29.69 in 10.0 mi North 25.3 mph 43.7 mph 0.00 in Rain Light Rain
11:54 AM 42.1 °F 33.1 °F 36.0 °F 79% 29.70 in 10.0 mi North 20.7 mph 33.4 mph 0.00 in Rain Light Rain
12:54 PM 41.0 °F 30.0 °F 36.0 °F 82% 29.68 in 10.0 mi North 28.8 mph 38.0 mph 0.02 in Rain Light Rain
1:54 PM 41.0 °F 31.1 °F 37.0 °F 86% 29.69 in 6.0 mi NNW 23.0 mph 35.7 mph 0.00 in Rain Light Rain
2:54 PM 41.0 °F 30.7 °F 36.0 °F 82% 29.67 in 10.0 mi NNW 25.3 mph 32.2 mph 0.03 in   Overcast
3:54 PM 39.9 °F 30.2 °F 36.0 °F 86% 29.68 in 6.0 mi North 20.7 mph 33.4 mph 0.03 in Rain Light Rain
4:54 PM 39.9 °F 29.5 °F 36.0 °F 86% 29.68 in 10.0 mi North 24.2 mph 36.8 mph 0.03 in Rain Light Rain
5:54 PM 39.9 °F 29.2 °F 36.0 °F 86% 29.70 in 10.0 mi NNW 25.3 mph 34.5 mph 0.02 in   Overcast
6:54 PM 39.9 °F 29.5 °F 36.0 °F 86% 29.71 in 9.0 mi NNW 24.2 mph 34.5 mph 0.02 in   Overcast
7:54 PM 39.9 °F 30.0 °F 35.1 °F 83% 29.72 in 10.0 mi North 21.9 mph 35.7 mph 0.01 in   Overcast
8:54 PM 39.9 °F 30.2 °F 35.1 °F 83% 29.72 in 10.0 mi North 20.7 mph 40.3 mph 0.01 in   Overcast
8:57 PM 39.2 °F 28.5 °F 35.6 °F 87% 29.71 in 10.0 mi NNW 24.2 mph 40.3 mph 0.00 in Rain Light Rain
9:54 PM 39.9 °F 30.8 °F 35.1 °F 83% 29.73 in 10.0 mi North 18.4 mph 32.2 mph 0.01 in Rain Light Rain
10:54 PM 39.9 °F 30.5 °F 36.0 °F 86% 29.72 in 8.0 mi NNW 19.6 mph 33.4 mph 0.00 in   Overcast
11:54 PM 39.9 °F 29.5 °F 35.1 °F 83% 29.71 in 10.0 mi North 24.2 mph 28.8 mph 0.00 in Rain Light Rain